#timestamp,LO_Frequency,Hit,StdDev 
1597601995.2,286047015.3,P
1597602015.0,286047014.1,P
1597602015.9,286047014.1,P
1597602035.8,286047017.0,Y
1597602055.6,286047002.4,P
1597602075.5,286047002.2,N
1597602095.3,286047002.8,N
1597602115.1,286047002.0,N
1597602135.9,286047002.4,N
1597602155.7,286046999.7,N
1597602175.5,286047002.6,N
1597602195.4,286047002.5,N
1597602215.2,286047002.6,N
1597602235.1,286047002.8,N
1597602236.0,286047002.8,N
1597602255.8,286047002.8,N
1597602275.6,286047004.2,N
1597602295.5,286047001.4,N
1597602315.3,286047003.7,N
1597602335.1,286047001.4,N
1597602355.9,286047003.1,N
1597602375.7,286047005.1,N
1597602395.6,286047005.8,N
1597602415.4,286047005.7,N
1597602435.2,286047005.7,N
1597602455.1,286047005.3,N
1597602456.0,286047005.3,N
1597602475.8,286047006.0,N
1597602495.6,286047005.9,N
1597602515.5,286047005.4,N
1597602535.3,286047005.0,N
1597602555.2,286047006.4,N
1597602575.9,286047006.2,N
1597602595.7,286047009.2,Y
1597602615.6,286047006.0,P
1597602635.4,286047003.4,P
1597602655.2,286047003.4,P
1597602675.1,286047006.0,Y
1597602676.0,286047006.0,P
1597602695.8,286047001.1,N
1597602715.7,286046998.4,N
1597602735.5,286046999.6,N
1597602755.3,286046996.8,N
1597602775.2,286046998.8,N
1597602795.0,286046996.6,N
1597602795.9,286046996.6,N
1597602815.8,286046999.1,N
1597602835.6,286046999.4,N
1597602855.4,286046999.4,N
1597602875.3,286046998.3,N
1597602895.1,286046998.2,N
1597602915.8,286046998.5,N
1597602935.7,286046998.7,N
1597602955.5,286047001.2,N
1597602975.3,286047000.2,N
1597602995.2,286046999.7,N
1597603015.0,286046999.7,N
1597603015.9,286046999.7,N
1597603035.8,286047000.1,N
1597603055.6,286047002.3,N
1597603075.4,286047001.9,N
1597603095.3,286047001.9,N
1597603115.1,286047002.0,N
1597603135.9,286047002.6,N
1597603155.7,286047001.3,N
1597603175.5,286047001.5,N
1597603195.4,286047001.4,N
1597603215.2,286047004.4,N
1597603235.0,286047003.3,N
1597603235.9,286047003.3,N
1597603255.8,286047006.0,N
1597603275.6,286047003.4,N
1597603295.5,286047003.8,N
1597603315.3,286047004.2,N
1597603335.1,286047003.2,N
1597603355.9,286047003.2,N
1597603375.7,286047004.1,N
1597603395.5,286047003.9,N
1597603415.4,286047006.0,N
1597603435.2,286047005.8,N
1597603455.0,286047005.4,N
1597603456.0,286047005.4,N
1597603475.8,286047005.1,N
1597603495.6,286047003.6,N
1597603515.5,286047005.5,N
1597603535.3,286047007.6,Y
1597603555.1,286047004.3,P
1597603575.9,286047003.0,P
1597603595.7,286047005.0,P
1597603615.6,286047004.9,Y
1597603635.4,286047002.3,P
1597603655.2,286047002.5,P
1597603675.1,286047002.5,P
1597603676.0,286047002.5,Y
1597603695.8,286046999.1,P
1597603715.7,286046999.0,N
1597603735.5,286046998.2,N
1597603755.3,286047000.9,N
1597603775.2,286047002.0,N
1597603795.9,286047001.8,N
1597603815.7,286047002.7,N
1597603835.6,286046999.7,N
1597603855.4,286047002.5,N
1597603875.3,286047002.4,N
1597603895.1,286047000.2,N
1597603896.0,286047000.2,N
1597603915.8,286047002.5,N
1597603935.7,286047001.3,N
1597603955.5,286047003.6,N
1597603975.3,286047003.2,N
1597603995.2,286047003.0,N
1597604015.0,286047003.1,N
1597604015.9,286047003.1,N
1597604035.8,286047005.6,Y
1597604055.6,286047004.2,P
1597604075.4,286047003.7,N
1597604095.3,286047003.6,P
1597604115.1,286047001.5,N
1597604135.8,286047001.7,N
1597604155.7,286047003.1,N
1597604175.5,286047005.6,Y
1597604195.4,286047002.5,P
1597604215.2,286047001.5,P
1597604235.0,286047001.5,N
1597604235.9,286047001.5,N
1597604255.8,286047001.3,N
1597604275.6,286047004.2,Y
1597604295.5,286047002.0,P
1597604315.3,286047001.3,P
1597604335.1,286047005.6,P
1597604355.9,286047005.8,Y
1597604375.7,286047001.6,P
1597604395.5,286047003.9,P
